Find Starlink 30402

NORAD ID: 57827 Int'l Des: 2023-138 Owner: SPXS Country: US Constellation: starlink operational
LEOCIRCULAR

Current View

Loading 3D Globe...

About Starlink 30402

Starlink 30402 (NORAD 57827) is a starlink constellation satellite (v2 mini) launched Sep 9, 2023 by SPXS of US. It operates in LEO, CIRCULAR orbit with a mass of 730.00 kg.

About Starlink 30402

Description loading...

Upcoming Passes

Passes for default location (London). Set your location on the main map for personalized predictions.

Altitude History

Loading altitude history...

Two-Line Element Set

1 57827U 23138V 26170.98319736 .00000744 00000-0 36550-4 0 9996
2 57827 43.0029 16.4097 0001289 268.1875 91.8829 15.27580660154370
Epoch: Jun 19, 2026 • Age: 21 hours

Current Status

Altitude 487.0 km
Velocity 7.63 km/s
Sub-Earth Point 42.99°N, 107.51°W
Launch Date Sep 9, 2023
Age 2.7 years
Type internet

Technical Details

Classification Payload
Mass 730.00 kg
Dry Mass 700.00 kg
Total Mass 730.00 kg
Length 0.30 m
Diameter 4.10 m
Span 29.00 m
Shape Box + pan
Manufacturer SPXS
Bus Type Starlink V2M
Phase Status In Orbit
Owner/State SPXS/US

Most Searched